Voltar ao catálogo

METEOR 2-5 DEB

LostPO
NORAD 40213·DEBRIS·🇷🇺 Russia

Lançado Oct 31, 1979 de Plesetsk Cosmodrome

Loading…

Próximas Passagens (próximas 24 horas)

TLE

ObsoletoSource: Space-Track

Época: Aug 28, 2022, 07:08 UTC

1 40213U 79095CL  22240.29769771  .00002631  00000-0  10930-2 0  9995
2 40213  81.2066  69.5588 0008489  29.5968  88.6849 14.26213626577481

Acompanhe METEOR 2-5 DEB em tempo real com AllMySat

Download on the App Store